FW7879 Weather Reports


time (UTC)temp
C
wind
direction
speed
KPH
gust
KPH
rain 1hr
cm
rain 24hr
cm
rain mn
cm
humidity
%
barometer
mb
20260507052503 14 0 0.0 4.8 0.00 0.00 0.00 84 1016.8
20260507052003 14 0 0.0 1.6 0.00 0.00 0.00 84 1016.7
20260507051503 14 0 0.0 0.0 0.00 0.00 0.00 84 1016.7
20260507051003 14 0 0.0 0.0 0.00 0.00 0.00 83 1016.7
20260507050503 14 0 0.0 0.0 0.00 0.00 0.00 83 1016.6
20260507050003 14 0 0.0 0.0 0.00 0.00 0.00 83 1016.6
20260507045503 14 0 0.0 0.0 0.00 0.00 0.00 83 1016.5
20260507045003 14 0 0.0 0.0 0.00 0.00 0.00 83 1016.6
20260507044503 14 0 0.0 0.0 0.00 0.00 0.00 83 1016.5
20260507044025 14 0 0.0 0.0 0.00 0.00 0.00 83 1016.5
20260507043525 14 0 0.0 1.6 0.00 0.00 0.00 83 1016.6
20260507043003 15 0 0.0 1.6 0.00 0.00 0.00 83 1016.6
20260507042503 15 0 0.0 1.6 0.00 0.00 0.00 83 1016.4
20260507042003 15 0 0.0 1.6 0.00 0.00 0.00 83 1016.4
20260507041503 15 159 0.0 1.6 0.00 0.00 0.00 83 1016.4
20260507041003 15 159 1.6 3.2 0.00 0.00 0.00 83 1016.4
20260507040503 15 159 1.6 6.4 0.00 0.00 0.00 83 1016.3
20260507040003 15 159 1.6 6.4 0.00 0.00 0.00 82 1016.2
20260507035526 15 159 0.0 6.4 0.00 0.00 0.00 82 1016.1
20260507035003 15 159 0.0 6.4 0.00 0.00 0.00 82 1016.2
20260507034503 15 160 1.6 6.4 0.00 0.00 0.00 82 1016.0
20260507034004 15 158 3.2 8.0 0.00 0.00 0.00 82 1016.0
20260507033503 15 157 1.6 8.0 0.00 0.00 0.00 81 1015.9
20260507033024 15 159 0.0 8.0 0.00 0.00 0.00 81 1016.0
20260507032525 15 0 0.0 8.0 0.00 0.00 0.00 81 1016.0
20260507032024 15 0 0.0 0.0 0.00 0.00 0.00 81 1015.9
20260507031503 15 0 0.0 0.0 0.00 0.00 0.00 80 1015.9
20260507031003 15 0 1.6 0.0 0.00 0.00 0.00 80 1015.7
20260507030503 15 202 3.2 6.4 0.00 0.00 0.00 80 1015.7
20260507030004 15 204 3.2 6.4 0.00 0.00 0.00 80 1015.6
20260507025504 16 205 4.8 6.4 0.00 0.00 0.00 79 1015.6
20260507025004 16 204 4.8 8.0 0.00 0.00 0.00 78 1015.6
20260507024504 16 208 4.8 9.7 0.00 0.00 0.00 78 1015.7
20260507024004 16 207 6.4 9.7 0.00 0.00 0.00 76 1015.7
20260507023504 16 208 6.4 11.3 0.00 0.00 0.00 75 1015.6
20260507023004 16 217 6.4 11.3 0.00 0.00 0.00 74 1015.6
20260507022504 16 224 6.4 11.3 0.00 0.00 0.00 73 1015.5
20260507022004 16 222 6.4 9.7 0.00 0.00 0.00 72 1015.4
20260507021504 16 214 6.4 11.3 0.00 0.00 0.00 73 1015.4
20260507021004 16 210 6.4 11.3 0.00 0.00 0.00 72 1015.3
20260507020504 16 214 6.4 9.7 0.00 0.00 0.00 73 1015.2
20260507020004 17 221 8.0 14.5 0.00 0.00 0.00 73 1015.3
20260507015526 17 214 8.0 14.5 0.00 0.00 0.00 74 1015.3
20260507015004 17 212 8.0 14.5 0.00 0.00 0.00 73 1015.3
20260507014525 17 217 8.0 14.5 0.00 0.00 0.00 73 1015.3
20260507014004 17 217 8.0 12.9 0.00 0.00 0.00 72 1015.3
20260507013525 17 219 8.0 12.9 0.00 0.00 0.00 71 1015.3
20260507013004 17 214 8.0 14.5 0.00 0.00 0.00 70 1015.3
20260507012504 17 215 8.0 16.1 0.00 0.00 0.00 70 1015.4
20260507012004 17 215 8.0 16.1 0.00 0.00 0.00 69 1015.2
20260507011504 18 216 8.0 16.1 0.00 0.00 0.00 69 1015.3
20260507011004 18 221 8.0 16.1 0.00 0.00 0.00 68 1015.2
20260507010504 18 229 8.0 14.5 0.00 0.00 0.00 68 1015.3
20260507010004 18 237 9.7 14.5 0.00 0.00 0.00 67 1015.4
20260507005525 18 237 9.7 14.5 0.00 0.00 0.00 67 1015.4
20260507005004 18 236 9.7 19.3 0.00 0.00 0.00 66 1015.4
20260507004504 18 243 9.7 20.9 0.00 0.00 0.00 65 1015.5
20260507004004 18 245 11.3 22.5 0.00 0.00 0.00 66 1015.4
20260507003504 18 251 11.3 22.5 0.00 0.00 0.00 65 1015.4
20260507003025 18 256 11.3 24.1 0.00 0.00 0.00 63 1015.3
20260507002504 18 246 9.7 24.1 0.00 0.00 0.00 64 1015.4
20260507002004 18 240 11.3 22.5 0.00 0.00 0.00 65 1015.5
20260507001504 18 241 12.9 20.9 0.00 0.00 0.00 64 1015.4
20260507001004 18 255 12.9 22.5 0.00 0.00 0.00 63 1015.4
20260507000505 18 263 12.9 24.1 0.00 0.00 0.00 63 1015.3
20260507000004 18 261 12.9 24.1 0.00 0.00 0.00 62 1015.4
20260506235504 18 253 14.5 24.1 0.00 0.00 0.00 62 1015.5
20260506235004 18 251 14.5 24.1 0.00 0.00 0.00 62 1015.4
20260506234504 18 249 14.5 24.1 0.00 0.00 0.00 61 1015.4
20260506234004 19 246 14.5 25.7 0.00 0.00 0.00 61 1015.5
20260506233504 19 255 14.5 25.7 0.00 0.00 0.00 60 1015.5
20260506233025 19 255 14.5 25.7 0.00 0.00 0.00 61 1015.4
20260506232504 19 247 14.5 24.1 0.00 0.00 0.00 61 1015.5
20260506232004 19 248 14.5 24.1 0.00 0.00 0.00 62 1015.4
20260506231525 19 243 14.5 24.1 0.00 0.00 0.00 62 1015.5
20260506231004 18 236 14.5 29.0 0.00 0.00 0.00 63 1015.6
20260506230525 18 243 14.5 29.0 0.00 0.00 0.00 63 1015.6
20260506230004 19 244 14.5 24.1 0.00 0.00 0.00 63 1015.7
20260506225525 19 242 14.5 24.1 0.00 0.00 0.00 64 1015.7
20260506225004 18 240 14.5 25.7 0.00 0.00 0.00 64 1015.8
20260506224504 18 226 14.5 25.7 0.00 0.00 0.00 64 1015.9
20260506224004 18 225 14.5 25.7 0.00 0.00 0.00 64 1016.0
20260506223525 18 242 14.5 24.1 0.00 0.00 0.00 64 1016.1
20260506223004 19 255 14.5 24.1 0.00 0.00 0.00 64 1016.2
20260506222504 19 250 14.5 25.7 0.00 0.00 0.00 64 1016.3
20260506222004 19 242 14.5 25.7 0.00 0.00 0.00 64 1016.4
20260506221504 19 235 14.5 27.4 0.00 0.00 0.00 65 1016.6
20260506221004 19 250 14.5 27.4 0.00 0.00 0.00 64 1016.7
20260506220525 19 260 14.5 25.7 0.00 0.00 0.00 63 1016.7
20260506220025 20 254 14.5 24.1 0.00 0.00 0.00 63 1016.8
20260506215504 19 252 12.9 24.1 0.00 0.00 0.00 62 1016.9
20260506215025 20 256 12.9 22.5 0.00 0.00 0.00 63 1016.9
20260506214504 20 246 12.9 22.5 0.00 0.00 0.00 63 1017.0
20260506214004 20 250 12.9 22.5 0.00 0.00 0.00 63 1017.0
20260506213504 20 253 12.9 22.5 0.00 0.00 0.00 63 1017.1
20260506213004 20 238 12.9 22.5 0.00 0.00 0.00 62 1017.1
20260506212525 20 234 12.9 20.9 0.00 0.00 0.00 62 1017.1
20260506212004 20 255 12.9 20.9 0.00 0.00 0.00 62 1017.1
20260506211504 20 263 11.3 20.9 0.00 0.00 0.00 60 1017.2
20260506211004 20 248 11.3 20.9 0.00 0.00 0.00 61 1017.2
20260506210504 20 240 11.3 20.9 0.00 0.00 0.00 60 1017.5
20260506210004 20 257 11.3 22.5 0.00 0.00 0.00 59 1017.5
20260506205504 20 263 11.3 22.5 0.00 0.00 0.00 60 1017.4
20260506205004 20 249 11.3 19.3 0.00 0.00 0.00 59 1017.4
20260506204504 20 249 9.7 17.7 0.00 0.00 0.00 60 1017.4
20260506204004 20 237 9.7 17.7 0.00 0.00 0.00 61 1017.3
20260506203504 20 221 11.3 19.3 0.00 0.00 0.00 59 1017.4
20260506203004 20 219 9.7 19.3 0.00 0.00 0.00 61 1017.4
20260506202504 20 220 9.7 19.3 0.00 0.00 0.00 61 1017.5
20260506202004 20 230 11.3 22.5 0.00 0.00 0.00 60 1017.5
20260506201504 20 247 11.3 22.5 0.00 0.00 0.00 60 1017.7
20260506201005 20 249 11.3 22.5 0.00 0.00 0.00 61 1017.7
20260506200504 20 242 9.7 22.5 0.00 0.00 0.00 62 1017.7
20260506200004 20 238 9.7 20.9 0.00 0.00 0.00 62 1017.7
20260506195504 20 229 9.7 20.9 0.00 0.00 0.00 61 1017.8
20260506195004 20 227 9.7 20.9 0.00 0.00 0.00 63 1017.8
20260506194504 20 230 11.3 20.9 0.00 0.00 0.00 63 1017.8
20260506194025 20 227 11.3 19.3 0.00 0.00 0.00 63 1017.9
20260506193504 20 239 11.3 19.3 0.00 0.00 0.00 63 1017.9
20260506193025 20 248 11.3 19.3 0.00 0.00 0.00 63 1017.8
20260506192525 20 244 11.3 22.5 0.00 0.00 0.00 64 1017.8
20260506192004 20 236 9.7 22.5 0.00 0.00 0.00 64 1017.9
20260506191526 20 232 9.7 19.3 0.00 0.00 0.00 64 1017.9
20260506191004 19 229 9.7 20.9 0.00 0.00 0.00 65 1017.9
20260506190525 19 222 8.0 20.9 0.00 0.00 0.00 65 1017.9
20260506190005 19 227 8.0 17.7 0.00 0.00 0.00 64 1017.9
20260506185504 19 227 9.7 17.7 0.00 0.00 0.00 65 1018.0
20260506185004 19 221 9.7 20.9 0.00 0.00 0.00 65 1017.9
20260506184504 19 233 9.7 20.9 0.00 0.00 0.00 65 1018.1
20260506184004 19 232 9.7 24.1 0.00 0.00 0.00 64 1017.9
20260506183525 19 228 9.7 24.1 0.00 0.00 0.00 65 1018.0
20260506183005 19 229 11.3 17.7 0.00 0.00 0.00 66 1018.0
20260506182504 19 236 11.3 22.5 0.00 0.00 0.00 66 1017.8
20260506182004 19 240 11.3 22.5 0.00 0.00 0.00 66 1018.0
20260506181504 19 235 11.3 22.5 0.00 0.00 0.00 66 1018.1
20260506181004 19 235 11.3 20.9 0.00 0.00 0.00 66 1018.0
20260506180525 19 230 11.3 20.9 0.00 0.00 0.00 66 1018.0
20260506180005 20 229 9.7 17.7 0.00 0.00 0.00 65 1018.0
20260506175525 20 231 8.0 17.7 0.00 0.00 0.00 65 1017.9
20260506175004 20 233 6.4 17.7 0.00 0.00 0.00 64 1017.9
20260506174504 20 242 6.4 17.7 0.00 0.00 0.00 64 1018.0
20260506174004 20 249 6.4 14.5 0.00 0.00 0.00 63 1017.9
20260506173504 20 250 6.4 12.9 0.00 0.00 0.00 64 1018.0
20260506173004 20 216 6.4 12.9 0.00 0.00 0.00 63 1017.9
20260506172504 20 216 6.4 12.9 0.00 0.00 0.00 64 1017.8
20260506172004 19 236 6.4 12.9 0.00 0.00 0.00 63 1017.9
20260506171504 19 199 6.4 12.9 0.00 0.00 0.00 64 1017.9
20260506171004 18 176 6.4 12.9 0.00 0.00 0.00 64 1018.0
20260506170504 18 195 6.4 14.5 0.00 0.00 0.00 63 1018.0
20260506170004 18 204 6.4 14.5 0.00 0.00 0.00 64 1018.1
20260506165504 18 199 4.8 12.9 0.00 0.00 0.00 64 1017.9
20260506165005 18 219 4.8 11.3 0.00 0.00 0.00 64 1018.0
20260506164504 18 228 6.4 11.3 0.00 0.00 0.00 65 1018.1
20260506164004 18 212 4.8 12.9 0.00 0.00 0.00 65 1018.2
20260506163504 18 215 3.2 12.9 0.00 0.00 0.00 65 1018.1
20260506163005 18 243 3.2 11.3 0.00 0.00 0.00 65 1018.1
20260506162504 18 261 3.2 9.7 0.00 0.00 0.00 65 1018.1
20260506162025 18 263 3.2 12.9 0.00 0.00 0.00 64 1018.1
20260506161525 18 264 1.6 12.9 0.00 0.00 0.00 65 1018.1
20260506161004 17 274 1.6 6.4 0.00 0.00 0.00 66 1018.0
20260506160504 17 284 1.6 9.7 0.00 0.00 0.00 67 1018.1
20260506160005 17 323 1.6 9.7 0.00 0.00 0.00 67 1017.9
20260506155504 17 12 1.6 6.4 0.00 0.00 0.00 68 1018.0
20260506155004 16 32 1.6 4.8 0.00 0.00 0.00 68 1018.0
20260506154526 16 32 3.2 6.4 0.00 0.00 0.00 69 1018.0
20260506154005 16 46 4.8 6.4 0.00 0.00 0.00 69 1017.9
20260506153504 15 52 4.8 12.9 0.00 0.00 0.00 70 1018.1
20260506153025 15 36 4.8 12.9 0.00 0.00 0.00 70 1018.0
20260506152505 15 38 6.4 9.7 0.00 0.00 0.00 72 1018.0
20260506152004 15 42 6.4 12.9 0.00 0.00 0.00 72 1017.9
20260506151504 15 33 6.4 16.1 0.00 0.00 0.00 72 1018.0
20260506151004 14 43 6.4 16.1 0.00 0.00 0.00 73 1018.0
20260506150504 14 50 6.4 12.9 0.00 0.00 0.00 73 1018.0
20260506150025 14 48 6.4 12.9 0.00 0.00 0.00 74 1017.9
20260506145504 13 38 6.4 14.5 0.00 0.00 0.00 74 1017.9
20260506145025 13 34 6.4 16.1 0.00 0.00 0.00 75 1018.0
20260506144504 13 36 6.4 16.1 0.00 0.00 0.00 75 1018.0
20260506144025 13 33 6.4 12.9 0.00 0.00 0.00 76 1018.0
20260506143504 13 32 6.4 14.5 0.00 0.00 0.00 76 1017.8
20260506143004 12 29 4.8 11.3 0.00 0.00 0.00 77 1017.8
20260506142504 12 31 4.8 11.3 0.00 0.00 0.00 78 1017.8
20260506142004 12 27 4.8 11.3 0.00 0.00 0.00 78 1017.7
20260506141505 12 24 4.8 11.3 0.00 0.00 0.00 78 1017.8
20260506141026 12 32 4.8 11.3 0.00 0.00 0.00 79 1017.8
20260506140525 12 39 4.8 11.3 0.00 0.00 0.00 79 1017.7
20260506140004 11 40 4.8 11.3 0.00 0.00 0.00 80 1017.7
20260506135504 11 40 4.8 11.3 0.00 0.00 0.00 80 1017.6
20260506135004 11 39 4.8 12.9 0.00 0.00 0.00 81 1017.7
20260506134504 11 41 4.8 12.9 0.00 0.00 0.00 80 1017.6
20260506134004 11 43 4.8 11.3 0.00 0.00 0.00 80 1017.4
20260506133504 11 44 4.8 9.7 0.00 0.00 0.00 80 1017.5
20260506133004 11 43 4.8 9.7 0.00 0.00 0.00 80 1017.5
20260506132505 11 41 4.8 8.0 0.00 0.00 0.00 80 1017.3
20260506132025 11 39 4.8 8.0 0.00 0.00 0.00 81 1017.3
20260506131525 11 37 3.2 9.7 0.00 0.00 0.00 81 1017.3
20260506131004 11 35 3.2 9.7 0.00 0.00 0.00 81 1017.2
20260506130504 11 34 3.2 6.4 0.00 0.00 0.00 81 1017.3
20260506130005 11 34 4.8 9.7 0.00 0.00 0.00 81 1017.2
20260506125504 11 33 4.8 9.7 0.00 0.00 0.00 81 1017.1
20260506125004 11 32 4.8 8.0 0.00 0.00 0.00 81 1017.1
20260506124504 11 32 4.8 8.0 0.00 0.00 0.00 81 1017.2
20260506124004 11 32 3.2 8.0 0.00 0.00 0.00 81 1017.0
20260506123525 11 31 3.2 8.0 0.00 0.00 0.00 81 1017.1
20260506123004 11 31 3.2 8.0 0.00 0.00 0.00 81 1017.0
20260506122504 11 30 4.8 8.0 0.00 0.00 0.00 82 1017.0
20260506122004 11 30 3.2 9.7 0.00 0.00 0.00 82 1016.8
20260506121505 11 31 3.2 9.7 0.00 0.00 0.00 82 1016.8
20260506121004 11 32 3.2 8.0 0.00 0.00 0.00 82 1016.7
20260506120504 11 32 4.8 8.0 0.00 0.00 0.00 82 1016.8
20260506120004 11 32 4.8 8.0 0.00 0.00 0.00 82 1016.8
20260506115525 11 32 4.8 8.0 0.00 0.00 0.00 82 1016.8
20260506115004 11 31 4.8 8.0 0.00 0.00 0.00 82 1016.8
20260506114504 11 31 4.8 9.7 0.00 0.00 0.00 82 1016.7
20260506114004 11 28 6.4 11.3 0.00 0.00 0.00 82 1016.7
20260506113525 11 26 6.4 12.9 0.00 0.00 0.00 82 1016.8
20260506113004 11 28 6.4 12.9 0.00 0.00 0.00 82 1016.7
20260506112504 11 34 6.4 16.1 0.00 0.00 0.00 82 1016.7
20260506112004 12 35 6.4 16.1 0.00 0.00 0.00 82 1016.6
20260506111525 12 33 6.4 12.9 0.00 0.00 0.00 82 1016.7
20260506111004 12 35 6.4 12.9 0.00 0.00 0.00 82 1016.7
20260506110504 11 38 6.4 14.5 0.00 0.00 0.00 82 1016.7
20260506110004 12 40 6.4 14.5 0.00 0.00 0.00 82 1016.8
20260506105504 11 40 4.8 11.3 0.00 0.00 0.00 82 1016.8
20260506105004 12 41 4.8 9.7 0.00 0.00 0.00 82 1016.8
20260506104504 12 44 4.8 9.7 0.00 0.00 0.00 82 1016.7
20260506104004 12 44 4.8 11.3 0.00 0.00 0.00 82 1016.7
20260506103525 12 41 6.4 11.3 0.00 0.00 0.00 82 1016.6
20260506103004 12 38 6.4 11.3 0.00 0.00 0.00 82 1016.6
20260506102504 11 41 6.4 14.5 0.00 0.00 0.00 82 1016.6
20260506102004 11 40 6.4 14.5 0.00 0.00 0.00 82 1016.6
20260506101504 12 38 6.4 14.5 0.00 0.00 0.00 82 1016.7
20260506101004 12 42 6.4 14.5 0.00 0.00 0.00 82 1016.7
20260506100504 12 46 6.4 14.5 0.00 0.00 0.00 82 1016.7
20260506100025 12 45 6.4 14.5 0.00 0.00 0.00 82 1016.7
20260506095525 12 44 4.8 14.5 0.00 0.00 0.00 82 1016.6
20260506095004 12 45 4.8 9.7 0.00 0.00 0.00 82 1016.6
20260506094504 12 44 3.2 9.7 0.00 0.00 0.00 81 1016.7
20260506094004 12 43 3.2 4.8 0.00 0.00 0.00 82 1016.8
20260506093504 12 43 3.2 8.0 0.00 0.00 0.00 82 1016.9
20260506093004 12 43 3.2 8.0 0.00 0.00 0.00 82 1016.8
20260506092525 12 43 3.2 6.4 0.00 0.00 0.00 82 1017.0
20260506092004 12 44 4.8 8.0 0.00 0.00 0.00 81 1016.9
20260506091525 12 44 4.8 8.0 0.00 0.00 0.00 81 1016.9
20260506091004 12 44 3.2 8.0 0.00 0.00 0.00 81 1016.9
20260506090504 12 44 3.2 6.4 0.00 0.00 0.00 81 1017.0
20260506090004 12 45 4.8 8.0 0.00 0.00 0.00 81 1017.0
20260506085504 12 45 4.8 8.0 0.00 0.00 0.00 81 1017.0
20260506085025 12 45 4.8 9.7 0.00 0.00 0.00 81 1017.0
20260506084504 12 46 4.8 9.7 0.00 0.00 0.00 81 1017.2
20260506084004 12 46 4.8 8.0 0.00 0.00 0.00 81 1017.2
20260506083525 12 46 4.8 8.0 0.00 0.00 0.00 82 1017.2
20260506083004 12 46 4.8 8.0 0.00 0.00 0.00 82 1017.2
20260506082504 12 46 4.8 8.0 0.00 0.00 0.00 81 1017.1
20260506082025 12 46 4.8 8.0 0.00 0.00 0.00 81 1017.2
20260506081504 12 46 4.8 8.0 0.00 0.00 0.00 82 1017.2
20260506081004 12 46 6.4 9.7 0.00 0.00 0.00 82 1017.3
20260506080504 12 47 6.4 11.3 0.00 0.00 0.00 82 1017.3
20260506073504 12 52 4.8 11.3 0.00 0.00 0.00 81 1017.1
20260506073004 12 53 4.8 9.7 0.00 0.00 0.00 81 1017.1
20260506072504 12 54 6.4 11.3 0.00 0.00 0.00 81 1017.1
20260506072025 13 56 4.8 11.3 0.00 0.00 0.00 81 1017.0
20260506071504 13 60 4.8 11.3 0.00 0.00 0.00 81 1017.1
20260506071004 13 61 4.8 9.7 0.00 0.00 0.00 81 1016.9
20260506070504 13 62 4.8 9.7 0.00 0.00 0.00 81 1016.8
20260506062504 13 67 4.8 8.0 0.00 0.00 0.00 81 1016.4
20260506062004 13 68 4.8 8.0 0.00 0.00 0.00 81 1016.3
20260506061504 13 69 4.8 8.0 0.00 0.00 0.00 80 1016.2
20260506061004 13 69 4.8 8.0 0.00 0.00 0.00 80 1016.2
20260506060504 13 69 4.8 8.0 0.00 0.00 0.00 80 1016.2